(505124) = 2012 FZ31

Discovered at Kitt Peak on 2012-02-25 by Spacewatch.

Orbit

Orbit type: Main Belt

Note: WebGL enabled browser required.

epoch2022-01-21.0
epoch JD2459600.5
perihelion date2022-01-07.26484
perihelion JD2459586.76484
argument of perihelion (°)4.28333
ascending node (°)94.60322
inclination (°)4.22742
eccentricity0.1573046
perihelion distance (AU)1.9419783
Tisserand w.r.t. Jupiter3.6
ΔV w.r.t. Earth (km/sec)8.7
semimajor axis (AU)2.3044843
mean anomaly (°)3.86970
mean daily motion (°/day)0.28173660
aphelion distance (AU)2.667
period (years)3.5
P-vector [x]-0.15427585
P-vector [y]0.90429368
P-vector [z]0.39806017
Q-vector [x]-0.98529184
Q-vector [y]-0.17077179
Q-vector [z]0.00608227
absolute magnitude17.94
phase slope0.15
uncertainty0
referenceMPO 701020
observations used92
oppositions7
arc length (days)3565
first opposition used2012
last opposition used2021
residual rms (arc-secs)0.30
perturbers coarse indicatorM-v
perturbers precise indicator003Ek
first observation date used2012-02-25.0
last observation date used2021-11-29.0
computer namePan
JD of orbit computation2458053.096963
perihelion JD uncertainty (days)9.3540E-05
argument of perihelion uncertainty (°)1.1286E-04
ascending node uncertainty (°)1.0664E-04
inclination uncertainty (°)3.7828E-06
eccentricity uncertainty 1.5154E-07
perihelion distance uncertainty (AU)4.3079E-07
Minimum Orbit Intersection Distances (in AU)
for orbit epoch: 2459200.5, reference: E2021-B25
Mercury1.63148
Venus1.22382
Earth0.95956
Mars0.32708
Jupiter2.48294
Saturn7.13358
Uranus16.0975
Neptune27.4886

Observations

88 total observations over interval: 2012 02 25.43497 – 2021 11 29.470879
These data are available for download (format description).

Date (UT) J2000 RA J2000 Dec Magn Location Ref
2012 02 25.43497 13 21 40.99 -01 19 31.2 20.9 V 691 – Steward Observatory, Kitt Peak-Spacewatch MPS 421934
2012 02 25.45291 13 21 40.73 -01 19 26.4 21.2 V 691 – Steward Observatory, Kitt Peak-Spacewatch MPS 421934
2012 02 25.47086 13 21 40.41 -01 19 22.1 21.0 V 691 – Steward Observatory, Kitt Peak-Spacewatch MPS 421934
2012 03 04.41767 13 18 47.15 -00 42 26.5 21.0 V 691 – Steward Observatory, Kitt Peak-Spacewatch MPS 421934
2012 03 04.43537 13 18 46.56 -00 42 20.8 21.3 V 691 – Steward Observatory, Kitt Peak-Spacewatch MPS 421934
2012 03 04.45308 13 18 46.02 -00 42 15.0 21.5 V 691 – Steward Observatory, Kitt Peak-Spacewatch MPS 421934
2012 03 16.27330 13 11 04.35 +00 26 10.7 20.7 V 691 – Steward Observatory, Kitt Peak-Spacewatch MPS 421934
2012 03 16.29102 13 11 03.45 +00 26 17.2 20.8 V 691 – Steward Observatory, Kitt Peak-Spacewatch MPS 421934
2012 03 16.30876 13 11 02.59 +00 26 24.0 20.7 V 691 – Steward Observatory, Kitt Peak-Spacewatch MPS 421934
2012 03 22.42411 13 05 47.58 +01 04 54.5 20.5 V G96 – Mt. Lemmon Survey MPS 418645
2012 03 22.43229 13 05 47.14 +01 04 57.5 20.3 V G96 – Mt. Lemmon Survey MPS 418645
2012 03 22.44042 13 05 46.64 +01 05 01.1 20.6 V G96 – Mt. Lemmon Survey MPS 418645
2012 03 22.44861 13 05 46.21 +01 05 03.6 20.6 V G96 – Mt. Lemmon Survey MPS 418645
2012 03 25.21340 13 03 12.97 +01 22 25.5   691 – Steward Observatory, Kitt Peak-Spacewatch MPS 418645
2012 03 25.23114 13 03 11.92 +01 22 32.7   691 – Steward Observatory, Kitt Peak-Spacewatch MPS 418645
2012 03 25.24888 13 03 10.96 +01 22 39.1   691 – Steward Observatory, Kitt Peak-Spacewatch MPS 418645
2012 03 28.20148 13 00 21.57 +01 40 51.1 20.8 V 691 – Steward Observatory, Kitt Peak-Spacewatch MPS 418645
2012 03 28.21923 13 00 20.53 +01 40 58.2 20.4 V 691 – Steward Observatory, Kitt Peak-Spacewatch MPS 418645
2012 03 28.23696 13 00 19.48 +01 41 04.0 20.5 V 691 – Steward Observatory, Kitt Peak-Spacewatch MPS 418645
2012 04 12.34122 12 45 47.993 +03 00 32.32 20.7 w F51 – Pan-STARRS 1, Haleakala MPS 420488
2012 04 12.35516 12 45 47.195 +03 00 35.77 20.7 w F51 – Pan-STARRS 1, Haleakala MPS 420488
2012 04 12.36910 12 45 46.400 +03 00 39.21 20.8 w F51 – Pan-STARRS 1, Haleakala MPS 420488
2012 04 12.38313 12 45 45.610 +03 00 42.77 20.7 w F51 – Pan-STARRS 1, Haleakala MPS 420488
2013 07 13.45838 20 25 31.285 -22 06 11.31 21.5 w F51 – Pan-STARRS 1, Haleakala MPS 609896
2013 07 13.47288 20 25 30.411 -22 06 15.65 21.4 w F51 – Pan-STARRS 1, Haleakala MPS 609896
2013 07 13.49243 20 25 29.242 -22 06 21.38 21.6 w F51 – Pan-STARRS 1, Haleakala MPS 609896
2013 07 13.50639 20 25 28.383 -22 06 25.60 21.4 w F51 – Pan-STARRS 1, Haleakala MPS 609896
2014 12 18.33150 06 25 48.48 +22 45 44.4 19.7 R H15 – ISON-NM Observatory, Mayhill MPS 609896
2014 12 18.34300 06 25 47.76 +22 45 47.5 19.1 R H15 – ISON-NM Observatory, Mayhill MPS 609896
2014 12 18.35382 06 25 47.07 +22 45 50.6 19.5 R H15 – ISON-NM Observatory, Mayhill MPS 609896
2014 12 28.19012 06 15 11.33 +23 25 19.0 19.3 V G96 – Mt. Lemmon Survey MPS 609896
2014 12 28.19470 06 15 11.03 +23 25 20.3 19.3 V G96 – Mt. Lemmon Survey MPS 609896
2014 12 28.19929 06 15 10.71 +23 25 21.3 19.2 V G96 – Mt. Lemmon Survey MPS 609896
2014 12 28.20387 06 15 10.37 +23 25 22.2 19.1 V G96 – Mt. Lemmon Survey MPS 609896
2017 08 20.53872 00 31 16.221 -03 43 31.65 21.5 w F51 – Pan-STARRS 1, Haleakala MPS 812080
2017 08 20.55129 00 31 15.952 -03 43 35.02 21.4 w F51 – Pan-STARRS 1, Haleakala MPS 812080
2017 08 20.56388 00 31 15.718 -03 43 38.95 21.4 w F51 – Pan-STARRS 1, Haleakala MPS 812080
2017 08 20.57649 00 31 15.477 -03 43 42.35 21.4 w F51 – Pan-STARRS 1, Haleakala MPS 812080
2017 08 22.49659 00 30 39.444 -03 52 56.11 21.3 w F51 – Pan-STARRS 1, Haleakala MPS 812080
2017 08 22.50778 00 30 39.186 -03 52 59.50 21.2 w F51 – Pan-STARRS 1, Haleakala MPS 812080
2017 08 22.51898 00 30 38.921 -03 53 03.05 21.1 w F51 – Pan-STARRS 1, Haleakala MPS 812080
2017 10 26.18602 23 41 48.08 -09 21 46.0 21.9 G G96 – Mt. Lemmon Survey MPS 828229
2017 10 26.19142 23 41 47.89 -09 21 46.3 21.9 G G96 – Mt. Lemmon Survey MPS 828229
2017 10 26.19679 23 41 47.83 -09 21 46.0 21.2 G G96 – Mt. Lemmon Survey MPS 828229
2017 10 26.20218 23 41 47.65 -09 21 46.8 20.7 G G96 – Mt. Lemmon Survey MPS 828229
2017 11 07.30522 23 38 42.558 -09 08 13.44 21.0 i F51 – Pan-STARRS 1, Haleakala MPS 835566
2017 11 07.31642 23 38 42.497 -09 08 11.85 21.1 i F51 – Pan-STARRS 1, Haleakala MPS 835566
2017 11 07.32760 23 38 42.418 -09 08 10.39 21.3 i F51 – Pan-STARRS 1, Haleakala MPS 835566
2017 11 07.33878 23 38 42.340 -09 08 08.31 21.0 i F51 – Pan-STARRS 1, Haleakala MPS 835566
2019 03 29.33662 13 01 55.62 +01 30 04.4 20.4 G G96 – Mt. Lemmon Survey MPS 986459
2019 03 29.34169 13 01 55.30 +01 30 05.8 20.9 G G96 – Mt. Lemmon Survey MPS 986459
2019 03 29.34675 13 01 54.99 +01 30 07.5 20.3 G G96 – Mt. Lemmon Survey MPS 986459
2019 03 29.35182 13 01 54.67 +01 30 09.4 21.0 G G96 – Mt. Lemmon Survey MPS 986459
2019 04 02.39525 12 57 57.886 +01 54 02.97 20.4 w F51 – Pan-STARRS 1, Haleakala MPS 986459
2019 04 02.40694 12 57 57.171 +01 54 06.90 20.5 w F51 – Pan-STARRS 1, Haleakala MPS 986459
2019 04 02.41870 12 57 56.445 +01 54 10.98 20.4 w F51 – Pan-STARRS 1, Haleakala MPS 986459
2019 04 24.30129 12 38 30.835 +03 23 47.16 20.9 w F51 – Pan-STARRS 1, Haleakala MPS 994189
2019 04 24.30194 12 38 30.797 +03 23 47.31 20.9 w F51 – Pan-STARRS 1, Haleakala MPS 994189
2019 04 24.31304 12 38 30.296 +03 23 48.70 21.0 w F51 – Pan-STARRS 1, Haleakala MPS 994189
2019 04 24.31368 12 38 30.274 +03 23 48.70 21.0 w F51 – Pan-STARRS 1, Haleakala MPS 994189
2019 04 24.32475 12 38 29.778 +03 23 50.18 21.1 w F51 – Pan-STARRS 1, Haleakala MPS 994189
2019 04 24.32541 12 38 29.754 +03 23 50.15 20.9 w F51 – Pan-STARRS 1, Haleakala MPS 994189
2019 05 28.27046 12 29 55.078 +02 39 45.64 21.8 w F51 – Pan-STARRS 1, Haleakala MPS 1012395
2019 05 28.28114 12 29 55.186 +02 39 42.96 21.9 w F51 – Pan-STARRS 1, Haleakala MPS 1012395
2019 05 28.29183 12 29 55.304 +02 39 40.25 21.8 w F51 – Pan-STARRS 1, Haleakala MPS 1012395
2019 05 28.30252 12 29 55.412 +02 39 37.24 21.9 w F51 – Pan-STARRS 1, Haleakala MPS 1012395
2020 06 17.51467 20 44 45.694 -20 09 01.48 22.0 w F51 – Pan-STARRS 1, Haleakala MPS 1204829
2020 06 17.52188 20 44 45.512 -20 09 02.82 22.0 w F51 – Pan-STARRS 1, Haleakala MPS 1204829
2020 06 17.52908 20 44 45.340 -20 09 04.31 22.0 w F51 – Pan-STARRS 1, Haleakala MPS 1204829
2020 06 17.53627 20 44 45.164 -20 09 05.86 22.1 w F51 – Pan-STARRS 1, Haleakala MPS 1204829
2020 07 20.39368 20 19 49.530 -22 38 21.27 21.1 w F51 – Pan-STARRS 1, Haleakala MPS 1224807
2020 07 20.40449 20 19 48.830 -22 38 24.43 21.3 w F51 – Pan-STARRS 1, Haleakala MPS 1224807
2020 07 20.41482 20 19 48.172 -22 38 27.45 21.2 w F51 – Pan-STARRS 1, Haleakala MPS 1224807
2020 07 20.42515 20 19 47.503 -22 38 30.80 21.2 w F51 – Pan-STARRS 1, Haleakala MPS 1224807
2020 08 14.30953 19 55 05.963 -24 18 37.27 21.6 w F51 – Pan-STARRS 1, Haleakala MPS 1239108
2020 08 14.32013 19 55 05.403 -24 18 38.91 21.6 w F51 – Pan-STARRS 1, Haleakala MPS 1239108
2020 08 14.33070 19 55 04.837 -24 18 40.68 21.8 w F51 – Pan-STARRS 1, Haleakala MPS 1239108
2020 08 15.34075 19 54 15.055 -24 21 28.80 21.7 w F51 – Pan-STARRS 1, Haleakala MPS 1239108
2020 08 15.35109 19 54 14.525 -24 21 30.52 21.7 w F51 – Pan-STARRS 1, Haleakala MPS 1239108
2020 08 15.37178 19 54 13.485 -24 21 34.03 21.6 w F51 – Pan-STARRS 1, Haleakala MPS 1239108
2020 08 22.27659 19 49 12.642 -24 37 38.70 21.8 w F51 – Pan-STARRS 1, Haleakala MPS 1239108
2020 08 22.28633 19 49 12.267 -24 37 39.76 21.5 w F51 – Pan-STARRS 1, Haleakala MPS 1239108
2020 08 22.29603 19 49 11.873 -24 37 41.14 21.7 w F51 – Pan-STARRS 1, Haleakala MPS 1239108
2020 08 22.30572 19 49 11.475 -24 37 42.33 21.6 w F51 – Pan-STARRS 1, Haleakala MPS 1239108
2021 11 29.454944 06 40 33.87 +21 37 19.3 20.30 G G96 – Mt. Lemmon Survey MPS 1524246
2021 11 29.460253 06 40 33.71 +21 37 20.1 20.11 G G96 – Mt. Lemmon Survey MPS 1524246
2021 11 29.465565 06 40 33.55 +21 37 21.1 19.94 G G96 – Mt. Lemmon Survey MPS 1524246
2021 11 29.470879 06 40 33.39 +21 37 22.3 19.87 G G96 – Mt. Lemmon Survey MPS 1524246